Regional Weather Roundup
Issued by NWS

Home | Current Version | Previous Version | Graphics & Text | Print | Product List | Glossary On
Versions: 1 2 3 4 5 6 7 8 9 10 11 12 13 14 15 16 17 18 19 20 21 22 23 24 25 26 27 28 29 30 31 32 33 34 35 36 37 38 39 40 41 42 43 44 45 46 47 48 49 50
000
ASUS43 KLSX 281259
RWRMO

WEATHER SUMMARY FOR MISSOURI
NATIONAL WEATHER SERVICE SPRINGFIELD MO
800 AM CDT THU AUG 28 2014

NOTE: "FAIR" INDICATES FEW OR NO CLOUDS BELOW 12,000 FEET WITH NO
       SIGNIFICANT WEATHER AND/OR OBSTRUCTIONS TO VISIBILITY.
       CURRENT SKY AND/OR WEATHER CONDITIONS ARE NOT AVAILABLE FOR
       CHILLICOTHE AND FARMINGTON.

MOZ001>031-035>038-043-044-053-054-281400-
...NORTHERN AND WESTERN MISSOURI...

CITY           SKY/WX    TMP DP  RH WIND       PRES   REMARKS
KANSAS CTY INT PTSUNNY   75  72  90 SE5       29.98R
KANSAS C DTWN  PTSUNNY   78  72  81 S5        29.97R
LEE`S SUMMIT   PTSUNNY   76  70  82 S7        29.99R
ST JOSEPH      CLOUDY    73  71  93 E6        29.98R
KIRKSVILLE     CLOUDY    72  69  90 E8        30.03F

$$
MOZ066>068-077>081-088>096-101>105-281400-
...SOUTHWEST MISSOURI...

CITY           SKY/WX    TMP DP  RH WIND       PRES   REMARKS
SPRINGFIELD    MOSUNNY   76  69  79 S10       30.04R
JOPLIN         SUNNY     76  69  79 S9        30.02R

$$
MOZ032>034-039>042-045>050-055>058-069>072-281400-
...CENTRAL MISSOURI...

CITY           SKY/WX    TMP DP  RH WIND       PRES   REMARKS
COLUMBIA       SUNNY     72  69  90 SE7       30.03S
JEFFERSON CITY SUNNY     72  69  90 SE5       30.02S
ROLLA          SUNNY     72  68  87 SE6       30.05R
SEDALIA        MOSUNNY   76  70  82 S7        30.01S HAZE
OSAGE BEACH    SUNNY     73  66  78 SE5       30.03S

$$
MOZ051-052-059>065-281400-
...EAST CENTRAL MISSOURI...

CITY           SKY/WX    TMP DP  RH WIND       PRES   REMARKS
ST LOUIS INTL  MOSUNNY   75  71  87 E3        30.06S
SPIRIT OF STL  SUNNY     73  71  93 CALM      30.04S
ST CHARLES     SUNNY     73  71  93 E3        30.05S FOG

$$
MOZ072>076-082>087-097>100-106>115-281400-
...SOUTH CENTRAL AND SOUTHEAST MISSOURI...

CITY           SKY/WX    TMP DP  RH WIND       PRES   REMARKS
CAPE GIRARDEAU SUNNY     76  72  87 CALM      30.04R
FARMINGTON     SUNNY     72  70  94 CALM      30.09S
POPLAR BLUFF   SUNNY     76  71  85 CALM      30.04R HAZE
WEST PLAINS    SUNNY     71  68  90 CALM      30.09R

$$



USA.gov is the U.S. government's official web portal to all federal, state and local government web resources and services.